sat.trackr.live / text

‹ back to catalog

GHGSAT-C4

NORAD 52746 · 2022-057Q

PAYLOAD ACTIVE UNKNOWN

§ Identity

Operator
Country
CA
Launch date
2022-05-25
Launch site
AFETR
Launch vehicle
Mass (kg)
RCS (m²)

External: N2YO · Heavens-Above · Gunter

§ Orbital elements

Epoch: 2026-05-25T04:05:39.649056Z

Period
93.87 min
Inclination
97.6493°
Eccentricity
0.0006555
Mean motion
15.34002005 rev/d
Perigee alt
459.4 km
Apogee alt
468.4 km
Semi-major
6,842.0 km
B*
1.9977e-4
RAAN
288.8290°
Arg perigee
175.5103°
Mean anomaly
184.6199°
Rev number
22,201

§ Raw data

GHGSAT-C41 52746U 22057Q   26145.17059779  .00006491  00000+0  19977-3 0  99982 52746  97.6493 288.8290 0006555 175.5103 184.6199 15.34002005222019

JSON: /api/v1/satellites/52746 · /tle

For live sub-satellite position, see the globe view (requires WebGL).

§ Visibility from observer

Set your observer location to see the next 7 days of passes ≥ 10°. The values pass through the URL so the page stays shareable.

No JS? Fill the form by hand. The geolocation button needs JavaScript.